Location: Jackson Park
(37.2862°N, 79.9123°W)
Time: 14:31:56
(UTC+00:00)

Vanguard 2 Rocket - Pass Details

Date: 11 May 2026
Orbit: 553 x 3286 km, 32.9° (Epoch: 6 June)

Event Time Altitude Azimuth Distance (km) Brightness Sun altitude
Rises 01:26:03 0° 279° (W) 7,040 12.7 -12.8°
Reaches altitude 10° 01:34:06 10° 261° (W) 5,600 11.6 -14.1°
Maximum altitude 01:41:41 15° 233° (SW) 4,605 10.7 -15.3°
Drops below altitude 10° 01:47:55 10° 203° (SSW) 4,429 10.2 -16.3°
Sets 01:53:00 0° 181° (S) 4,869 10.3 -17.1°
